Location: Bailey Volunteer Fire Department
(33.4359°N, 96.1680°W)
Time: 16:35:10
(UTC+00:00)

Cosmos 2333 - Pass Details

Date: 13 December 2025
Orbit: 829 x 864 km, 70.9° (Epoch: 14 January)

Event Time Altitude Azimuth Distance (km) Brightness Sun altitude
Exits shadow 12:40:19 - 333° (NNW) 3,313 6.8 -8.4°
Reaches altitude 10° 12:42:32 10° 330° (NNW) 2,485 6.2 -7.9°
Maximum altitude 12:48:06 56° 253° (WSW) 996 4.4 -6.9°
Drops below altitude 10° 12:53:34 10° 176° (S) 2,447 7.0 -5.8°
Sets 12:56:02 0° 172° (S) 3,373 7.8 -5.4°
